Flag for USA

Past Weather in Winder, Georgia, USA — Yesterday and Last 2 Weeks

Now
63 °F

Clear.


Feels Like: 63 °F
Forecast: 79 / 61 °F
Wind: No wind

Location: Winder-Barrow Airport
Current Time: Oct 22, 2020 at 12:38:54 am
Latest Report: Oct 22, 2020 at 12:15 am
Visibility: 10 mi
Pressure30.23 "Hg
Humidity: 100%
Dew Point: 63 °F
Location of WinderLocation

Past Weather in Winder — Graph

°F

Winder Temperature Yesterday

Maximum temperature yesterday: 81 °F (at 4:15 pm)
Minimum temperature yesterday: 57 °F (at 1:15 am)
Average temperature yesterday: 67 °F

High & Low Weather Summary for the Past Weeks

 TemperatureHumidityPressure
High81 °F (Oct 7, 1:55 pm)100% (Oct 7, 4:55 am)30.39 "Hg (Oct 7, 4:55 am)
Low43 °F (Oct 17, 5:35 am)29% (Oct 14, 1:15 pm)29.82 "Hg (Oct 11, 2:55 pm)
Average64 °F79%30.12 "Hg
* Reported Oct 6 11:15 pm — Oct 21 11:15 pm, Winder. Weather by CustomWeather, © 2020

Note: Actual official high and low records may vary slightly from our data, if they occured in-between our weather recording intervals... More about our weather records

Winder Weather History for the Previous 24 Hours

Scroll right to see more
 ConditionsComfort  
Time TempWeatherWind HumidityBarometerVisibility
11:15 pm
Wed, Oct 21
63 °FClear.No wind100%30.24 "Hg10 mi
10:55 pm64 °FClear.No wind94%30.24 "Hg10 mi
10:15 pm64 °FClear.No wind94%30.24 "Hg10 mi
9:55 pm64 °FClear.No wind94%30.23 "Hg10 mi
9:35 pm64 °FClear.No wind100%30.23 "Hg10 mi
9:15 pm66 °FClear.No wind88%30.23 "Hg10 mi
8:55 pm68 °FClear.No wind83%30.23 "Hg10 mi
8:15 pm68 °FClear.No wind88%30.23 "Hg10 mi
7:55 pm68 °FPassing clouds.No wind88%30.23 "Hg10 mi
7:15 pm72 °FClear.No wind78%30.23 "Hg10 mi
6:55 pm73 °FClear.3 mph69%30.22 "Hg10 mi
6:15 pm77 °FSunny.No wind61%30.22 "Hg10 mi
5:55 pm77 °FSunny.3 mph57%30.21 "Hg10 mi
5:35 pm79 °FSunny.No wind54%30.21 "Hg10 mi
5:15 pm79 °FSunny.No wind58%30.21 "Hg10 mi
4:55 pm79 °FSunny.3 mph58%30.21 "Hg10 mi
4:15 pm81 °FScattered clouds.5 mph54%30.21 "Hg10 mi
3:15 pm79 °FBroken clouds.No wind54%30.22 "Hg10 mi
2:55 pm79 °FSunny.No wind58%30.23 "Hg10 mi
2:15 pm77 °FScattered clouds.3 mph61%30.24 "Hg10 mi
1:55 pm77 °FScattered clouds.6 mph61%30.25 "Hg10 mi
1:15 pm75 °FPartly sunny.5 mph65%30.27 "Hg10 mi
12:55 pm77 °FOvercast.3 mph65%30.28 "Hg10 mi
12:35 pm77 °FScattered clouds.No wind65%30.29 "Hg10 mi
12:15 pm73 °FScattered clouds.5 mph69%30.30 "Hg10 mi
11:55 am73 °FThundershowers. Scattered clouds.3 mph69%30.31 "Hg10 mi
11:15 am70 °FScattered clouds.3 mph73%30.31 "Hg10 mi
10:55 am70 °FOvercast.5 mph73%30.31 "Hg10 mi
10:15 am66 °FPartly sunny.3 mph78%30.31 "Hg10 mi
9:55 am64 °FMostly cloudy.3 mph83%30.31 "Hg10 mi
9:15 am63 °FMostly cloudy.No wind88%30.30 "Hg10 mi
8:55 am61 °FMostly cloudy.No wind94%30.29 "Hg10 mi
7:55 am61 °FScattered clouds.No wind88%30.27 "Hg10 mi
7:35 am59 °FPassing clouds.No wind94%30.27 "Hg10 mi
7:15 am59 °FPartly cloudy.No wind94%30.27 "Hg10 mi
6:55 am61 °FOvercast.No wind88%30.26 "Hg10 mi
6:15 am61 °FMostly cloudy.No wind94%30.25 "Hg10 mi
5:55 am61 °FMostly cloudy.No wind94%30.25 "Hg10 mi
5:15 am59 °FOvercast.3 mph100%30.23 "Hg10 mi
4:55 am59 °FOvercast.No wind100%30.23 "Hg10 mi
4:15 am59 °FOvercast.No wind94%30.22 "Hg10 mi
3:55 am59 °FOvercast.No wind88%30.23 "Hg10 mi
3:35 am57 °FPassing clouds.No wind94%30.23 "Hg10 mi
3:15 am59 °FClear.No wind88%30.22 "Hg10 mi
2:55 am57 °FClear.No wind94%30.22 "Hg10 mi
2:35 am57 °FClear.No wind94%30.22 "Hg10 mi
2:15 am57 °FClear.No wind94%30.22 "Hg10 mi
1:55 am57 °FClear.No wind94%30.22 "Hg10 mi
1:15 am57 °FClear.No wind94%30.23 "Hg10 mi
12:55 am59 °FClear.No wind94%30.24 "Hg10 mi
12:35 am59 °FClear.No wind94%30.23 "Hg10 mi
12:15 am59 °FClear.No wind100%30.23 "Hg10 mi
Weather by CustomWeather, © 2020

See weather overview